Location: Unspecified
(0.0000°N, 0.0000°E)
Time: 12:00:26
(UTC+00:00)

S-56A Canister/Altair - Pass Details

Date: 14 December 2018
Orbit: 633 x 2500 km, 38.9° (Epoch: 25 March)

Event Time Altitude Azimuth Distance (km) Brightness Sun altitude
Rises 01:33:54 0° 265° (W) 3,603 - -56.5°
Reaches altitude 10° 01:36:46 10° 280° (W) 2,891 - -56.0°
Maximum altitude 01:42:16 23° 330° (NNW) 2,499 - -55.0°
Drops below altitude 10° 01:49:35 10° 18° (NNE) 3,959 - -53.7°
Sets 01:54:27 0° 31° (NNE) 5,309 - -52.7°
